WetterOnline ( http://www.wetteronline.de )

Wetter aktuell Malsch

Aktuelles Wetter: Mühlacker (245m)

6-stündlich | Neueste Meldungen
Ortszeit Temperatur Wetter
Do, 18.10. 14:00 20.1° C leicht bewölkt
Do, 18.10. 8:00 5.6° C leicht bewölkt
Do, 18.10. 2:00 7.4° C wolkig
Mi, 17.10. 20:00 14.8° C leicht bewölkt
Mi, 17.10. 14:00 22.2° C leicht bewölkt
Mi, 17.10. 8:00 4.0° C fast wolkenlos
Mi, 17.10. 2:00 6.1° C wolkenlos
Di, 16.10. 20:00 12.4° C wolkenlos
Ortszeit Temperatur Wetter
Do, 18.10. 16:00 21.4° C wolkenlos
Do, 18.10. 15:30 21.3° C wolkenlos
Do, 18.10. 15:20 21.3° C wolkenlos
Do, 18.10. 15:10 21.8° C wolkenlos
Do, 18.10. 15:00 21.7° C fast wolkenlos
Do, 18.10. 14:50 21.7° C fast wolkenlos
Do, 18.10. 14:30 21.7° C fast wolkenlos
Do, 18.10. 14:00 20.1° C leicht bewölkt
Do, 18.10. 13:30 19.6° C leicht bewölkt
Do, 18.10. 13:00 18.7° C wolkenlos
Do, 18.10. 12:30 17.2° C wolkenlos
Ortszeit Relative Feuchte Sichtweite
Do, 18.10. 14:00 50% 11 km
Do, 18.10. 8:00 96% 3.2 km
Do, 18.10. 2:00 87% 14 km
Mi, 17.10. 20:00 65% 28 km
Mi, 17.10. 14:00 38% 26 km
Mi, 17.10. 8:00 97% 2.9 km
Mi, 17.10. 2:00 89% 16 km
Di, 16.10. 20:00 66% 28 km
Ortszeit Relative Feuchte Sichtweite
Do, 18.10. 16:00 46% 15 km
Do, 18.10. 15:30 46% 18 km
Do, 18.10. 15:20 46% -
Do, 18.10. 15:10 44% -
Do, 18.10. 15:00 45% 17 km
Do, 18.10. 14:50 45% -
Do, 18.10. 14:30 45% 14 km
Do, 18.10. 14:00 50% 11 km
Do, 18.10. 13:30 52% 9 km
Do, 18.10. 13:00 57% 10 km
Do, 18.10. 12:30 58% 10 km
Ortszeit Niederschlagsmenge Niederschlagsart
Do, 18.10. 14:00 0.0 l/m2 in 6 Std. -
Do, 18.10. 8:00 0.0 l/m2 in 12 Std. -
Do, 18.10. 2:00 0.0 l/m2 in 6 Std. -
Mi, 17.10. 20:00 0.0 l/m2 in 12 Std. -
Mi, 17.10. 14:00 0.0 l/m2 in 6 Std. -
Mi, 17.10. 8:00 0.0 l/m2 in 12 Std. -
Mi, 17.10. 2:00 0.0 l/m2 in 6 Std. -
Di, 16.10. 20:00 0.0 l/m2 in 12 Std. -
Ortszeit Niederschlagsmenge Niederschlagsart
Do, 18.10. 16:00 0.0 l/m2 in 1 Std. -
Do, 18.10. 15:30 0.0 l/m2 in 1 Std. -
Do, 18.10. 15:20 keine Meldung -
Do, 18.10. 15:10 keine Meldung -
Do, 18.10. 15:00 0.0 l/m2 in 1 Std. -
Do, 18.10. 14:50 keine Meldung -
Do, 18.10. 14:30 0.0 l/m2 in 1 Std. -
Do, 18.10. 14:00 0.0 l/m2 in 1 Std. -
Do, 18.10. 13:30 0.0 l/m2 in 1 Std. -
Do, 18.10. 13:00 0.0 l/m2 in 1 Std. -
Do, 18.10. 12:30 0.0 l/m2 in 1 Std. -
Ortszeit Stärke Spitze Richtung
km/h Bft. km/h Grad Sektor
Do, 18.10. 14:00 4 1 11 160° S
Do, 18.10. 8:00 0 0 4 - -
Do, 18.10. 2:00 2 1 7 280° W
Mi, 17.10. 20:00 6 1 19 240° SW
Mi, 17.10. 14:00 7 2 14 170° S
Mi, 17.10. 8:00 0 0 4 - -
Mi, 17.10. 2:00 0 0 7 - -
Di, 16.10. 20:00 0 0 18 - -
Ortszeit Stärke Spitze Richtung
km/h Bft. km/h Grad Sektor
Do, 18.10. 16:00 11 2 18 360° N
Do, 18.10. 15:30 9 2 19 20° N
Do, 18.10. 15:20 9 2 - 20° N
Do, 18.10. 15:10 7 2 - 10° N
Do, 18.10. 15:00 9 2 19 20° N
Do, 18.10. 14:50 9 2 - 20° N
Do, 18.10. 14:30 6 1 13 100° O
Do, 18.10. 14:00 4 1 11 160° S
Do, 18.10. 13:30 4 1 11 120° SO
Do, 18.10. 13:00 4 1 7 10° N
Do, 18.10. 12:30 4 1 7 150° SO
Ortszeit Untergrenze Bedeckung Gattung
total tief tief mittel hoch
Do, 18.10. 14:00 10500 m 3/8 0/8 - - -
Do, 18.10. 8:00 7800 m 5/8 0/8 - - -
Do, 18.10. 2:00 2100 m 7/8 1/8 - - -
Mi, 17.10. 20:00 6900 m 3/8 3/8 - - -
Mi, 17.10. 14:00 9000 m 5/8 0/8 - - -
Mi, 17.10. 8:00 9000 m 2/8 0/8 - - -
Mi, 17.10. 2:00 - 0/8 0/8 - - -
Di, 16.10. 20:00 - 0/8 0/8 - - -
Ortszeit Bedeckungsgrad in Achtel und Wolkenuntergrenze
Do, 18.10. 16:00 keine Wolken
Do, 18.10. 15:30 keine Wolken
Do, 18.10. 15:20 keine Wolken
Do, 18.10. 15:10 keine Wolken
Do, 18.10. 15:00 2(10500m)
Do, 18.10. 14:50 2(10500m)
Do, 18.10. 14:30 2(10500m)
Do, 18.10. 14:00 3(10500m)
Do, 18.10. 13:30 3(10500m)
Do, 18.10. 13:00 1(10500m)
Do, 18.10. 12:30 keine Wolken
Ortszeit Luftdruck NN (hPa) Tendenz (hPa in 3 Std.)
Do, 18.10. 14:00 1019 - 0,8
Do, 18.10. 8:00 1021 + 0,7
Do, 18.10. 2:00 1020 - 0,2
Mi, 17.10. 20:00 1018 + 0,7
Mi, 17.10. 14:00 1018 - 1,2
Mi, 17.10. 8:00 1021 + 0,4
Mi, 17.10. 2:00 1021 - 0,1
Di, 16.10. 20:00 1020 + 0,8
Ortszeit Luftdruck NN (hPa) Tendenz (hPa in 3 Std.)
Do, 18.10. 16:00 1019 - 1,0
Do, 18.10. 15:30 1019 - 1,1
Do, 18.10. 15:20 1019 keine Meldung
Do, 18.10. 15:10 1019 keine Meldung
Do, 18.10. 15:00 1019 - 1,0
Do, 18.10. 14:50 1019 keine Meldung
Do, 18.10. 14:30 1019 - 1,0
Do, 18.10. 14:00 1019 - 0,8
Do, 18.10. 13:30 1020 - 0,6
Do, 18.10. 13:00 1020 - 0,3
Do, 18.10. 12:30 1020 + 0,1
Ortszeit Schneehöhe (cm)
Do, 18.10. 14:00 0
Do, 18.10. 8:00 0
Do, 18.10. 2:00 0
Mi, 17.10. 20:00 0
Mi, 17.10. 14:00 0
Mi, 17.10. 8:00 0
Mi, 17.10. 2:00 0
Di, 16.10. 20:00 0
Ortszeit Schneehöhe (cm)
Do, 18.10. 16:00 0
Do, 18.10. 15:30 0
Do, 18.10. 15:20 0
Do, 18.10. 15:10 0
Do, 18.10. 15:00 0
Do, 18.10. 14:50 0
Do, 18.10. 14:30 0
Do, 18.10. 14:00 0
Do, 18.10. 13:30 0
Do, 18.10. 13:00 0
Do, 18.10. 12:30 0
Link zu dieser Seite / Seite empfehlen

Das Wetter in ...